Location: Newark
(40.2667°N, 44.5667°E)
Time: 00:56:00
(UTC+00:00)

X-37B - Visible Passes

Search period start: 21 September 2020 00:00
Search period end: 01 October 2020 00:00
Orbit: 386 x 387 km, 45.0° (Epoch: 18 September)

Date Brightness Start Highest point End Pass type
(mag) Time Alt. Az. Time Alt. Az. Time Alt. Az.
21 Sep 2.8 00:37:28 26° NE 00:37:28 26° NE 00:39:20 10° ENE visible
21 Sep 0.6 02:10:06 10° WNW 02:13:17 82° NNE 02:16:27 10° ESE visible
22 Sep 1.2 01:14:02 43° NNW 01:14:39 53° NNE 01:17:46 10° E visible
23 Sep 3.8 00:18:25 14° ENE 00:18:25 14° ENE 00:19:00 10° E visible
23 Sep 0.7 01:50:43 20° WNW 01:52:43 57° SSW 01:55:50 10° SE visible
24 Sep 1.9 00:55:13 38° ESE 00:55:13 38° ESE 00:57:20 10° ESE visible
25 Sep 1.5 01:32:12 31° SSW 01:32:12 31° SSW 01:34:54 10° SSE visible
30 Sep 3.1 16:24:17 10° SSW 16:24:52 14° SSW 16:24:52 14° SSW visible
